sat.trackr.live / text

‹ back to catalog

STARLINK-36990

NORAD 68068 · 2026-041AE

PAYLOAD ACTIVE UNKNOWN

§ Identity

Operator
Country
US
Launch date
2026-03-02
Launch site
AFETR
Launch vehicle
Mass (kg)
RCS (m²)

Purposes: comms

External: N2YO · Heavens-Above · Gunter

§ Orbital elements

Epoch: 2026-09-19T12:19:14.969280Z

Period
93.85 min
Inclination
53.1580°
Eccentricity
0.0001473
Mean motion
15.34388647 rev/d
Perigee alt
461.7 km
Apogee alt
463.7 km
Semi-major
6,840.9 km
B*
7.3081e-4
RAAN
226.0153°
Arg perigee
116.6465°
Mean anomaly
243.4689°
Rev number
3,111

§ Raw data

STARLINK-369901 68068U 26041AE  26262.51336770  .00024387  00000+0  73081-3 0  99962 68068  53.1580 226.0153 0001473 116.6465 243.4689 15.34388647 31116

JSON: /api/v1/satellites/68068 · /tle

For live sub-satellite position, see the globe view (requires WebGL).

§ Visibility from observer

Set your observer location to see the next 7 days of passes ≥ 10°. The values pass through the URL so the page stays shareable.

No JS? Fill the form by hand. The geolocation button needs JavaScript.